TimeCST,TemperatureF,Dew PointF,Humidity,Sea Level PressureIn,VisibilityMPH,Wind Direction,Wind SpeedMPH,Gust SpeedMPH,PrecipitationIn,Events,Conditions,WindDirDegrees,DateUTC
12:15 AM,19.4,17.6,93,30.27,10.0,WSW,9.2,-,N/A,,Mostly Cloudy,250,2013-01-04 06:15:00
12:35 AM,17.6,15.8,93,30.27,10.0,WSW,10.4,-,N/A,,Scattered Clouds,240,2013-01-04 06:35:00
12:55 AM,17.6,14.0,86,30.27,10.0,WSW,8.1,-,N/A,,Clear,250,2013-01-04 06:55:00
1:15 AM,17.6,14.0,86,30.27,10.0,WSW,9.2,-,N/A,,Clear,250,2013-01-04 07:15:00
1:35 AM,17.6,14.0,86,30.28,10.0,WSW,8.1,-,N/A,,Clear,240,2013-01-04 07:35:00
1:55 AM,17.6,14.0,86,30.28,10.0,WSW,9.2,-,N/A,,Clear,240,2013-01-04 07:55:00
2:15 AM,15.8,14.0,93,30.28,10.0,WSW,9.2,-,N/A,,Clear,240,2013-01-04 08:15:00
2:55 AM,15.8,12.2,86,30.27,10.0,WSW,10.4,-,N/A,,Clear,240,2013-01-04 08:55:00
3:15 AM,14.0,12.2,93,30.27,10.0,WSW,11.5,-,N/A,,Clear,240,2013-01-04 09:15:00
5:35 AM,12.2,10.4,92,30.27,10.0,SW,11.5,-,N/A,,Clear,230,2013-01-04 11:35:00
6:15 AM,12.2,10.4,92,30.27,10.0,WSW,9.2,-,N/A,,Clear,240,2013-01-04 12:15:00
6:35 AM,12.2,10.4,92,30.28,10.0,SW,10.4,-,N/A,,Clear,230,2013-01-04 12:35:00
6:55 AM,12.2,10.4,92,30.28,10.0,SW,10.4,-,N/A,,Clear,220,2013-01-04 12:55:00
7:15 AM,12.2,10.4,92,30.27,10.0,SW,9.2,-,N/A,,Clear,230,2013-01-04 13:15:00
7:35 AM,12.2,10.4,92,30.27,10.0,SW,12.7,-,N/A,,Clear,230,2013-01-04 13:35:00
7:55 AM,14.0,10.4,86,30.27,10.0,SW,13.8,-,N/A,,Clear,230,2013-01-04 13:55:00
8:15 AM,14.0,10.4,86,30.27,10.0,SW,15.0,-,N/A,,Clear,230,2013-01-04 14:15:00
8:55 AM,17.6,12.2,79,30.28,10.0,SW,12.7,-,N/A,,Clear,230,2013-01-04 14:55:00
9:15 AM,17.6,14.0,86,30.28,10.0,SW,16.1,21.9,N/A,,Clear,230,2013-01-04 15:15:00
9:35 AM,19.4,14.0,80,30.29,10.0,SW,15.0,20.7,N/A,,Clear,230,2013-01-04 15:35:00
9:55 AM,21.2,17.6,86,30.29,10.0,SW,13.8,-,N/A,,Clear,230,2013-01-04 15:55:00
10:15 AM,23.0,17.6,80,30.29,10.0,SW,16.1,-,N/A,,Clear,230,2013-01-04 16:15:00
10:35 AM,23.0,17.6,80,30.28,10.0,SW,17.3,-,N/A,,Clear,230,2013-01-04 16:35:00
10:55 AM,24.8,19.4,80,30.27,10.0,SW,17.3,24.2,N/A,,Clear,230,2013-01-04 16:55:00
11:15 AM,26.6,19.4,74,30.27,10.0,WSW,18.4,21.9,N/A,,Clear,240,2013-01-04 17:15:00
11:35 AM,26.6,21.2,80,30.26,10.0,WSW,17.3,24.2,N/A,,Clear,240,2013-01-04 17:35:00
11:55 AM,26.6,21.2,80,30.24,10.0,SW,17.3,26.5,N/A,,Clear,230,2013-01-04 17:55:00
12:15 PM,28.4,21.2,74,30.24,10.0,SW,20.7,25.3,N/A,,Clear,230,2013-01-04 18:15:00
12:35 PM,28.4,23.0,80,30.23,10.0,WSW,19.6,26.5,N/A,,Clear,240,2013-01-04 18:35:00
12:55 PM,28.4,23.0,80,30.23,10.0,SW,19.6,25.3,N/A,,Clear,230,2013-01-04 18:55:00
1:15 PM,30.2,23.0,75,30.23,10.0,WSW,18.4,27.6,N/A,,Clear,240,2013-01-04 19:15:00
1:35 PM,30.2,23.0,75,30.22,10.0,SW,24.2,28.8,N/A,,Clear,230,2013-01-04 19:35:00
1:55 PM,30.2,24.8,80,30.22,10.0,SW,20.7,27.6,N/A,,Clear,230,2013-01-04 19:55:00
2:15 PM,30.2,26.6,86,30.22,10.0,SW,20.7,26.5,N/A,,Clear,230,2013-01-04 20:15:00
2:35 PM,30.2,26.6,86,30.22,10.0,SW,18.4,-,N/A,,Clear,230,2013-01-04 20:35:00
2:55 PM,30.2,26.6,86,30.22,10.0,SW,19.6,26.5,N/A,,Clear,220,2013-01-04 20:55:00
3:15 PM,32.0,26.6,80,30.22,10.0,SW,17.3,25.3,N/A,,Clear,230,2013-01-04 21:15:00
3:35 PM,32.0,26.6,80,30.22,10.0,SW,20.7,-,N/A,,Clear,230,2013-01-04 21:35:00
3:55 PM,32.0,26.6,80,30.22,10.0,SW,18.4,24.2,N/A,,Clear,230,2013-01-04 21:55:00
4:15 PM,30.2,24.8,80,30.23,10.0,SW,17.3,21.9,N/A,,Clear,230,2013-01-04 22:15:00
4:35 PM,30.2,24.8,80,30.22,10.0,SW,18.4,-,N/A,,Clear,220,2013-01-04 22:35:00
4:55 PM,30.2,24.8,80,30.23,10.0,SW,17.3,23.0,N/A,,Clear,230,2013-01-04 22:55:00
5:15 PM,30.2,24.8,80,30.23,10.0,SW,15.0,-,N/A,,Clear,230,2013-01-04 23:15:00
5:35 PM,30.2,24.8,80,30.24,10.0,SW,10.4,-,N/A,,Clear,230,2013-01-04 23:35:00
5:55 PM,28.4,24.8,86,30.25,10.0,SW,13.8,18.4,N/A,,Clear,230,2013-01-04 23:55:00
6:15 PM,28.4,24.8,86,30.25,10.0,SW,12.7,-,N/A,,Clear,230,2013-01-05 00:15:00
6:35 PM,28.4,23.0,80,30.25,10.0,SW,12.7,-,N/A,,Clear,230,2013-01-05 00:35:00
6:55 PM,28.4,23.0,80,30.25,10.0,SW,13.8,-,N/A,,Clear,230,2013-01-05 00:55:00
7:15 PM,28.4,23.0,80,30.25,10.0,SW,15.0,-,N/A,,Clear,230,2013-01-05 01:15:00
7:35 PM,28.4,23.0,80,30.25,10.0,SW,15.0,-,N/A,,Clear,230,2013-01-05 01:35:00
7:55 PM,28.4,23.0,80,30.25,10.0,SW,12.7,-,N/A,,Clear,230,2013-01-05 01:55:00
8:15 PM,28.4,23.0,80,30.25,10.0,SW,11.5,-,N/A,,Clear,230,2013-01-05 02:15:00
8:35 PM,28.4,23.0,80,30.26,10.0,SW,12.7,-,N/A,,Clear,230,2013-01-05 02:35:00
8:55 PM,28.4,23.0,80,30.26,10.0,SW,10.4,-,N/A,,Clear,230,2013-01-05 02:55:00
9:15 PM,26.6,23.0,86,30.26,10.0,SW,9.2,-,N/A,,Clear,230,2013-01-05 03:15:00
9:55 PM,26.6,23.0,86,30.27,10.0,SW,9.2,-,N/A,,Clear,230,2013-01-05 03:55:00
10:15 PM,26.6,21.2,80,30.27,10.0,SSW,4.6,-,N/A,,Clear,210,2013-01-05 04:15:00
10:35 PM,23.0,21.2,93,30.27,10.0,SSW,6.9,-,N/A,,Clear,210,2013-01-05 04:35:00
10:55 PM,23.0,21.2,93,30.27,10.0,SSW,5.8,-,N/A,,Clear,200,2013-01-05 04:55:00
11:15 PM,21.2,21.2,100,30.27,10.0,SSW,6.9,-,N/A,,Clear,210,2013-01-05 05:15:00
11:35 PM,23.0,21.2,93,30.27,10.0,SW,5.8,-,N/A,,Clear,220,2013-01-05 05:35:00
11:55 PM,21.2,19.4,93,30.25,10.0,SSW,4.6,-,N/A,,Clear,200,2013-01-05 05:55:00